Gilze-Rijen, Netherlands

11:46 PM CET on March 25, 2017 (GMT +0100)
Gilze-Rijen Air Base

Weather History for EHGR - March, 2013

Change the Weather History Date:

Thursday, March 7, 2013

  Actual Average Record
Temperature  
Mean Temperature 52 °F -  
Max Temperature 59 °F 51 °F 60 °F (2001)
Min Temperature 44 °F 36 °F 26 °F (2009)
Degree Days  
Heating Degree Days 14    
Growing Degree Days 2 (Base 50)    
Moisture  
Dew Point 40 °F    
Average Humidity 68    
Maximum Humidity 82    
Minimum Humidity 48    
Precipitation  
Precipitation 0.00 in - - ()
Sea Level Pressure  
Sea Level Pressure 29.48 in    
Wind  
Wind Speed 6 mph ()    
Max Wind Speed 9 mph    
Max Gust Speed -    
Visibility 5.7 miles    
Events Rain    
Averages and records for this station are not official NWS values.
T = Trace of Precipitation, MM = Missing Value Source: Averaged Metar Reports

Daily Weather History Graph

Daily Weather History Graph

Search for Another Location

Airport or City:

Trip Planner

Search our weather history database for the weather conditions in past years. The results will help you decide how hot, cold, wet, or windy it might be!

Date:

Astronomy

Mar. 07, 2013 Rise Set
Actual Time 7:12 AM CET 6:31 PM CET
Civil Twilight 6:38 AM CET 7:04 PM CET
Nautical Twilight 6:00 AM CET 7:43 PM CET
Astronomical Twilight 5:21 AM CET 8:22 PM CET
Moon 4:26 AM CET (3/7) 1:35 PM CET (3/7)
Length of Visible Light 12h 25m
Length of Day
11h 19m
Waning Crescent, 22% of the Moon is Illuminated
Mar 7
Waning Crescent
Mar 11
New
Mar 19
First Quarter
Mar 27
Full
Apr 3
Last Quarter

Hourly Weather History & Observations

Time (CET) Temp. Windchill Dew Point Humidity Pressure Visibility Wind Dir Wind Speed Gust Speed Precip Events Conditions
12:25 AM 46.4 °F 43.5 °F 32.0 °F 57% 29.53 in 6.2 mi ENE 5.8 mph - N/A   Partly Cloudy
12:55 AM 46.4 °F 42.9 °F 33.8 °F 62% 29.53 in 6.2 mi East 6.9 mph - N/A   Partly Cloudy
1:25 AM 48.2 °F - 33.8 °F 58% 29.50 in 6.2 mi East 6.9 mph - N/A   Overcast
1:55 AM 48.2 °F - 35.6 °F 62% 29.50 in 6.2 mi East 8.1 mph - N/A   Overcast
2:25 AM 46.4 °F 42.9 °F 35.6 °F 66% 29.53 in 6.2 mi East 6.9 mph - N/A   Overcast
2:55 AM 46.4 °F 42.9 °F 35.6 °F 66% 29.50 in 6.2 mi East 6.9 mph - N/A   Mostly Cloudy
3:25 AM 48.2 °F - 35.6 °F 62% 29.50 in 6.2 mi East 8.1 mph - N/A   Overcast
3:55 AM 46.4 °F 42.9 °F 35.6 °F 66% 29.50 in 6.2 mi East 6.9 mph - N/A   Mostly Cloudy
4:25 AM 48.2 °F - 35.6 °F 62% 29.50 in 6.2 mi East 6.9 mph - N/A   Overcast
4:55 AM 46.4 °F 44.3 °F 35.6 °F 66% 29.47 in 6.2 mi East 4.6 mph - N/A   Mostly Cloudy
5:25 AM 46.4 °F 44.3 °F 35.6 °F 66% 29.47 in 6.2 mi ENE 4.6 mph - N/A   Overcast
5:55 AM 46.4 °F 44.3 °F 35.6 °F 66% 29.47 in 6.2 mi ESE 4.6 mph - N/A   Mostly Cloudy
6:25 AM 44.6 °F - 35.6 °F 71% 29.47 in 6.2 mi ENE 2.3 mph - N/A   Mostly Cloudy
6:55 AM 44.6 °F 41.4 °F 35.6 °F 71% 29.50 in 6.2 mi East 5.8 mph - N/A   Mostly Cloudy
7:25 AM 44.6 °F 43.1 °F 35.6 °F 71% 29.50 in 6.2 mi East 3.5 mph - N/A   Mostly Cloudy
7:55 AM 46.4 °F 43.5 °F 35.6 °F 66% 29.50 in 6.2 mi ENE 5.8 mph - N/A   Mostly Cloudy
8:25 AM 44.6 °F 42.2 °F 37.4 °F 76% 29.47 in 6.2 mi NE 4.6 mph - N/A   Mostly Cloudy
8:35 AM 46.4 °F 42.9 °F 37.4 °F 71% 29.50 in 6.2 mi East 6.9 mph - N/A   Mostly Cloudy
8:55 AM 46.4 °F 44.3 °F 37.4 °F 71% 29.50 in 6.2 mi ESE 4.6 mph - N/A   Mostly Cloudy
9:25 AM 48.2 °F - 35.6 °F 62% 29.50 in 6.2 mi East 5.8 mph - N/A   Scattered Clouds
9:55 AM 50.0 °F - 35.6 °F 58% 29.50 in 6.2 mi ESE 4.6 mph - N/A   Overcast
10:25 AM 50.0 °F - 35.6 °F 58% 29.50 in 6.2 mi East 6.9 mph - N/A   Overcast
10:55 AM 51.8 °F - 35.6 °F 54% 29.50 in 6.2 mi East 5.8 mph - N/A   Overcast
11:25 AM 51.8 °F - 35.6 °F 54% 29.47 in 6.2 mi East 3.5 mph - N/A   Overcast
11:55 AM 53.6 °F - 37.4 °F 54% 29.47 in 6.2 mi ESE 5.8 mph - N/A   Overcast
12:25 PM 53.6 °F - 37.4 °F 54% 29.47 in 6.2 mi ESE 4.6 mph - N/A   Overcast
12:55 PM 53.6 °F - 37.4 °F 54% 29.47 in 6.2 mi ESE 4.6 mph - N/A   Overcast
1:25 PM 55.4 °F - 39.2 °F 54% 29.47 in 6.2 mi East 5.8 mph - N/A   Overcast
1:55 PM 57.2 °F - 39.2 °F 51% 29.47 in 6.2 mi SE 4.6 mph - N/A   Overcast
2:25 PM 59.0 °F - 39.2 °F 48% 29.47 in 6.2 mi SE 5.8 mph - N/A   Mostly Cloudy
2:55 PM 59.0 °F - 41.0 °F 51% 29.44 in 6.2 mi SW 5.8 mph - N/A   Overcast
3:25 PM 59.0 °F - 41.0 °F 51% 29.44 in 6.2 mi SW 3.5 mph - N/A   Overcast
3:55 PM 59.0 °F - 42.8 °F 55% 29.44 in 6.2 mi SSW 2.3 mph - N/A   Overcast
4:25 PM 59.0 °F - 42.8 °F 55% 29.44 in 6.2 mi Calm Calm - N/A   Mostly Cloudy
4:55 PM 59.0 °F - 42.8 °F 55% 29.44 in 6.2 mi South 1.2 mph - N/A   Overcast
5:25 PM 57.2 °F - 42.8 °F 59% 29.44 in 6.2 mi ESE 2.3 mph - N/A   Overcast
5:44 PM 57.2 °F - 44.6 °F 63% 29.44 in 6.2 mi ESE 4.6 mph - N/A   Overcast
5:55 PM 55.4 °F - 42.8 °F 63% 29.44 in 6.2 mi ESE 3.5 mph - N/A Rain Light Rain
6:25 PM 53.6 °F - 44.6 °F 72% 29.44 in 6.2 mi East 6.9 mph - N/A   Light Drizzle
6:55 PM 53.6 °F - 44.6 °F 72% 29.47 in 5.6 mi ESE 6.9 mph - N/A   Drizzle
7:25 PM 53.6 °F - 46.4 °F 77% 29.47 in 5.0 mi ESE 5.8 mph - N/A   Drizzle
7:55 PM 51.8 °F - 46.4 °F 82% 29.47 in 5.6 mi East 5.8 mph - N/A   Drizzle
8:06 PM 51.8 °F - 46.4 °F 82% 29.47 in 4.3 mi East 5.8 mph - N/A Rain Light Rain Showers
8:10 PM 51.8 °F - 46.4 °F 82% 29.47 in 5.0 mi East 5.8 mph - N/A Rain Light Rain
8:14 PM 51.8 °F - 46.4 °F 82% 29.47 in 4.3 mi East 5.8 mph - N/A Rain Light Rain
8:25 PM 51.8 °F - 44.6 °F 76% 29.47 in 4.3 mi ESE 6.9 mph - N/A   Light Drizzle
8:29 PM 51.8 °F - 44.6 °F 76% 29.47 in 5.0 mi ESE 6.9 mph - N/A   Light Drizzle
8:42 PM 50.0 °F - 44.6 °F 82% 29.47 in 5.0 mi East 9.2 mph - N/A   Haze
8:55 PM 50.0 °F - 44.6 °F 82% 29.47 in 5.0 mi East 6.9 mph - N/A   Haze
9:25 PM 50.0 °F - 42.8 °F 76% 29.47 in 5.6 mi East 6.9 mph - N/A   Haze
9:55 PM 50.0 °F - 42.8 °F 76% 29.47 in 5.0 mi East 9.2 mph - N/A Rain Light Rain
10:15 PM 50.0 °F - 42.8 °F 76% 29.47 in 4.3 mi East 9.2 mph - N/A Rain Light Rain
10:18 PM 48.2 °F - 42.8 °F 82% 29.47 in 5.0 mi East 6.9 mph - N/A Rain Light Rain
10:25 PM 48.2 °F - 42.8 °F 82% 29.47 in 4.3 mi East 6.9 mph - N/A   Light Drizzle
10:29 PM 48.2 °F - 42.8 °F 82% 29.47 in 5.0 mi East 8.1 mph - N/A   Drizzle
10:33 PM 48.2 °F - 42.8 °F 82% 29.47 in 4.3 mi East 8.1 mph - N/A   Drizzle
10:37 PM 48.2 °F - 42.8 °F 82% 29.47 in 5.0 mi East 8.1 mph - N/A Rain Light Rain
10:38 PM 48.2 °F - 42.8 °F 82% 29.47 in 4.3 mi East 8.1 mph - N/A Rain Light Rain
10:55 PM 48.2 °F - 42.8 °F 82% 29.47 in 4.3 mi East 8.1 mph - N/A   Haze
11:01 PM 48.2 °F - 42.8 °F 82% 29.47 in 4.3 mi East 8.1 mph - N/A   Haze
11:25 PM 48.2 °F - 42.8 °F 82% 29.47 in 4.3 mi East 6.9 mph - N/A   Haze
11:55 PM 48.2 °F - 42.8 °F 82% 29.47 in 4.3 mi East 5.8 mph - N/A   Haze